Regional Weather Roundup
Issued by NWS Upton, NY

Current Version | Previous Version | Text Only | Print | Product List | Glossary On
Versions: 1 2 3 4 5 6 7 8 9 10 11 12 13 14 15 16 17 18 19 20 21 22 23 24 25 26 27 28 29 30 31 32 33 34 35 36 37 38 39 40 41 42 43 44 45
000 ASUS41 KOKX 260505 RWROKX REGIONAL WEATHER ROUNDUP NATIONAL WEATHER SERVICE NEW YORK NY 1200 AM EST FRI DEC 26 2014 NOTE: "FAIR" INDICATES FEW OR NO CLOUDS BELOW 12,000 FEET WITH NO SIGNIFICANT WEATHER AND/OR OBSTRUCTIONS TO VISIBILITY. NYZ071-072-176-178-NJZ106-104-260600- NEW YORK CITY METRO AREA CITY SKY/WX TMP DP RH WIND PRES REMARKS CENTRAL PARK CLEAR 45 28 51 MISG 30.14R LAGUARDIA APRT CLEAR 45 28 51 W12 30.11R KENNEDY INTL CLEAR 44 31 60 W9 30.14R NEWARK/LIBERTY PTCLDY 41 31 67 SW9 30.13R BRNX BOT. GARD N/A N/A N/A N/A W13 30.10R TETERBORO CLEAR 44 28 53 SW6 30.11R $$ NYZ177-179-078>081-260600- LONG ISLAND NEW YORK CITY SKY/WX TMP DP RH WIND PRES REMARKS FARMINGDALE CLEAR 44 29 55 W8 30.11R ISLIP PTCLDY 41 30 65 SW7 30.08R SHIRLEY CLEAR 41 29 62 W6 30.10R WESTHAMPTON CLEAR 38 27 64 W7 30.09R WCI 33 MONTAUK POINT N/A 46 35 65 W8 30.06R $$ NYZ052-065-067-260600- HUDSON VALLEY CITY SKY/WX TMP DP RH WIND PRES REMARKS WHITE PLAINS CLEAR 42 28 57 W9 30.07R NEWBURGH MOCLDY 41 30 65 CALM 30.09R MONTGOMERY CLEAR 42 27 55 W6 30.08R POUGHKEEPSIE CLEAR 41 28 60 W7 30.07R ALBANY CLOUDY 42 27 55 W13 30.09R $$ NJZ001-105-106-008-010-013-015-019>022-104-260600- NEW JERSEY CITY SKY/WX TMP DP RH WIND PRES REMARKS NEWARK/LIBERTY PTCLDY 41 31 67 SW9 30.13R TETERBORO CLEAR 44 28 53 SW6 30.11R CALDWELL CLEAR 40 28 62 W3 30.13R MORRISTOWN CLEAR 39 30 70 SW5 30.13R SOMERVILLE CLEAR 41 29 62 CALM 30.13R SUSSEX CLEAR 41 28 60 W5 30.11R ANDOVER NOT AVBL TRENTON CLEAR 39 29 67 W6 30.17R WCI 35 MILLVILLE CLEAR 34 31 88 W5 30.21R WCI 30 ATLANTIC CITY CLEAR 39 31 72 W6 30.20R WCI 35 WRIGHTSTOWN CLEAR 41 29 63 W7 30.16R TOMS RIVER CLEAR 37 30 75 W3 30.16S BELMAR CLEAR 43 28 56 W10 30.15R $$ PAZ047>061-062-071-260600- EASTERN PENNSYLVANIA CITY SKY/WX TMP DP RH WIND PRES REMARKS PHILADELPHIA CLEAR 40 31 70 W9 30.21R WCI 34 ALLENTOWN CLEAR 37 27 67 SW5 30.16R WCI 33 SCRANTON PTCLDY 39 28 64 SW5 30.13R $$ CTZ002-004>006-009-010-012-RIZ004-006-007-MAZ004-011-015-260600- SOUTHERN NEW ENGLAND IN CT CITY SKY/WX TMP DP RH WIND PRES REMARKS BRADLEY INTL MOCLDY 44 29 55 NW8 30.03R HARTFORD CLEAR 44 28 53 W8 30.05R DANBURY CLEAR 42 25 50 VRB6 30.06R WTRBRY/OXFORD CLEAR 39 27 60 NW6 30.05R WCI 35 BRIDGEPORT CLEAR 43 32 65 W5 30.07R MERIDEN CLEAR 32 28 85 CALM 30.06R NEW HAVEN CLEAR 47 32 56 VRB5 30.06R CHESTER FAIR 39 30 70 W3 30.05R GROTON CLEAR 42 30 62 W8 30.04R WILLIMANTIC CLEAR 44 29 55 NW8 30.03R IN RI CITY SKY/WX TMP DP RH WIND PRES REMARKS PROVIDENCE CLEAR 40 29 64 SW5 30.01R BLOCK ISLAND CLEAR 46 32 57 W14G21 30.03R WESTERLY CLEAR 44 30 57 W7 30.04R IN MA CITY SKY/WX TMP DP RH WIND PRES REMARKS BOSTON CLEAR 44 29 55 W16G22 29.96R WORCESTER CLEAR 38 28 67 W14G20 29.95R WCI 30 WESTFIELD CLOUDY 44 26 49 NW12G24 30.02R PROVINCETOWN CLEAR 45 32 61 W15 29.97R NANTUCKET CLEAR 46 32 58 W16 29.99R $$ ANZ330-335-338-340-345-350-353-355-260600- COASTAL MARINE OBSERVATIONS STATION/POSITION TIME SKY/WX TEMP WIND PRES VSBY WAVE AIR SEA DIR/SP/G HT/PER (UTC) (F) (DEG/KT/KT) (MB) (MI) (FT/S) NY HARB ENTRANCE 0500 45 46 260/ 17/ 19 1020.9 3/ 8 4S FIRE IS 0500 47 N/A 3/ 8 20S FIRE ISLAND 0400 47 49 1019.3 4/ 4 23SW MTP 0500 N/A 5/ 6 HUDSON CANYON 0500 49 55 290/ 21/ 25 1019.6 7/ 6 EXECUTION ROCKS 0500 45 42 260/ 10/ 12 N/A WESTERN LI SOUND 0500 45 270/ 12/ 16 N/A 1 CENTRAL LI SOUND 0400 45 44 280/ 14/ 17 N/A 2/ 5 EASTERN LI SOUND NOT AVBL ROBBINS REEF 0500 44 1019.0 $$ >>>>>>>>>>>>>>>>>>>>>>>>>>>> KEY <<<<<<<<<<<<<<<<<<<<<<<<<<< > < > SKY/WX - SKY CONDITION/PRESENT WEATHER < > TMP - TEMPERATURE IN FAHRENHEIT < > DP - DEWPOINT IN FAHRENHEIT < > RH - RELATIVE HUMIDITY IN PERCENT < > WIND - DIRECTION AND SPEED IN MPH < > PRES - MEAN SEA LEVEL PRESSURE IN INCHES OF HG < > WCI - WIND CHILL INDEX < > VSB - VISIBILITY IN MILES < > HX - HEAT INDEX < > TC - TEMPERATURE IN CELSIUS < > VRB - VARIABLE WIND DIRECTION < > < >>>>>>>>>>>>>>>>>>>>>>>>>>>> KEY <<<<<<<<<<<<<<<<<<<<<<<<<<<

USA.gov is the U.S. government's official web portal to all federal, state and local government web resources and services.